CAPE
0 0 0 0 5 1 0 0 0 0 0 0 0 0 0 0 0 0 0 0 0 0 0 0 0 0 0 0 0 0 0 0 0 0 0 0 0 0 0 0 0 0 0 0
0 0 0 0 0 0 0 0 2 0 0 0 0 0 0 0 0 0 0 0 0 0 0 0 0 0 0 0 0 0 0 0 0 0 0 0 0 0 0 0 0 0 0 0
0 0 0 0 0 0 0 2 0 0 0 0 0 0 0 0 0 0 0 0 0 0 0 0 0 0 0 0 0 0 0 0 0 0 0 0 0 0 0 0 0 0 0 0
0 0 0 0 0 0 0 0 2 0 0 0 0 0 0 0 0 0 0 0 0 0 0 0 0 0 0 0 0 0 0 0 0 0 0 0 0 0 0 0 0 0 0 0
1 0 0 0 0 1 0 1 1 0 0 0 0 0 0 0 0 0 0 0 0 0 0 0 0 0 0 0 0 0 0 0 0 0 0 0 0 0 0 0 0 0 0 0
0 0 0 0 0 0 0 0 0 0 0 0 0 0 0 0 0 0 0 0 0 0 0 0 0 0 0 0 0 0 0 0 0 0 0 0 0 0 0 0 0 0 0 0
0 0 0 0 0 0 0 0 0 0 0 0 0 0 0 0 0 0 0 0 0 0 0 0 0 0 0 0 0 0 0 0 0 0 0 0 0 0 0 0 0 0 0 0
0 0 0 0 1 0 0 0 0 1 0 0 0 0 0 0 0 0 0 0 0 0 0 0 0 0 0 0 0 0 0 0 0 0 0 0 0 0 0 0 0 0 0 0
0 0 0 0 0 0 2 0 0 0 8 0 0 0 0 0 0 0 0 0 0 0 0 0 0 0 0 0 0 0 0 0 0 0 0 0 0 0 0 0 0 0 0 0
0 0 0 0 0 0 1 1 0 1 0 0 0 0 0 0 0 0 0 0 0 0 0 0 0 0 0 0 0 0 0 0 0 0 0 0 0 0 0 0 0 0 0 0
0 0 0 0 0 0 1 0 0 0 0 0 0 0 0 0 0 0 0 0 0 0 0 0 0 0 0 0 0 0 0 0 0 0 0 0 0 0 0 0 0 0 0 0
0 0 0 0 0 0 1 3 1 6 0 0 0 0 0 0 0 0 0 0 0 0 0 0 0 0 0 0 0 0 0 0 0 0 0 0 0 0 0 0 0 0 0 0
0 0 0 0 1 1 0 0 0 5 0 0 0 0 0 0 0 0 0 0 0 0 0 0 0 0 0 0 0 0 0 0 0 0 0 0 0 0 0 0 0 0 0 0
0 0 0 0 0 0 0 0 0 18 0 0 0 0 0 0 0 0 0 0 0 0 0 0 0 0 0 0 0 0 0 0 0 0 0 0 0 0 0 0 0 0 0 0
0 0 0 0 0 0 1 1 0 0 0 0 0 0 0 0 0 0 0 0 0 0 0 0 0 0 0 0 0 0 0 0 0 0 0 0 0 0 0 0 0 0 0 0
0 0 1 0 0 1 0 0 0 0 0 0 0 0 0 0 0 0 0 0 0 0 0 0 0 0 0 0 0 0 0 0 0 0 0 0 0 0 0 0 0 0 0 0
2 1 1 0 0 10 0 0 0 0 0 0 0 0 0 0 0 0 0 0 0 0 0 0 0 0 0 0 0 0 0 0 0 0 0 0 0 0 0 0 0 0 0 0
1 1 1 2 0 0 0 0 0 0 0 0 0 0 0 0 0 0 0 0 0 0 0 0 0 0 0 0 0 0 0 0 0 0 0 0 0 0 0 0 0 0 0 0
2 1 1 1 0 0 0 0 0 0 0 0 0 0 0 0 0 0 0 0 0 0 0 0 0 0 0 0 0 0 0 0 0 0 0 0 0 0 0 0 0 0 0 0
1 1 0 0 0 0 0 0 0 0 0 0 0 0 0 0 0 0 0 0 0 0 0 0 0 0 0 0 0 0 0 0 0 0 0 0 0 0 0 0 0 0 0 0
0 0 0 1 0 0 0 1 0 0 0 0 0 0 0 0 0 0 0 0 0 0 0 0 0 0 0 0 0 0 0 0 0 0 0 0 0 0 0 0 0 0 0 0
0 1 0 0 1 1 0 0 0 0 0 0 0 0 0 0 0 0 0 0 0 0 0 0 0 0 0 0 0 0 0 0 0 0 0 0 0 0 0 0 0 0 0 0
0 0 0 0 0 1 0 2 0 0 0 0 0 0 0 0 0 0 0 0 0 0 0 0 0 0 0 0 0 0 0 0 0 0 0 0 0 0 0 0 0 0 0 0
0 0 0 0 0 0 0 0 0 0 0 0 0 0 0 0 0 0 0 0 0 0 0 0 1 0 0 0 0 0 0 0 0 0 0 0 0 0 0 0 0 0 0 0
0 0 0 0 0 0 0 0 0 0 0 0 0 0 0 0 0 0 0 0 0 0 0 1 0 0 0 0 0 0 0 0 0 0 0 0 0 0 0 0 0 0 0 0
0 0 0 0 1 0 0 0 0 0 0 0 0 0 0 0 0 0 0 0 0 0 0 0 0 0 0 0 0 0 0 0 0 0 0 1 1 1 1 0 0 0 0 0
0 0 0 0 0 1 0 0 0 0 0 0 0 0 0 0 0 0 0 0 0 0 0 0 0 0 0 0 0 0 0 0 0 0 0 0 0 1 1 0 0 0 0 0
CIN
0 0 0 -7 -62 -21 0 0 0 0 0 0 0 0 0 0 0 0 0 0 0 0 0 0 0 0 0 0 0 0 0 0 0 0 0 0 0 0 0 0 0 0 0 0
0 0 0 0 0 0 0 0 -64 0 0 0 0 0 0 0 0 0 0 0 0 0 0 0 0 0 0 0 0 0 0 0 0 0 0 0 0 0 0 0 0 0 0 0
0 0 0 0 0 0 0 -19 0 0 0 0 0 0 0 0 0 0 0 0 0 0 0 0 0 0 0 0 0 0 0 0 0 0 0 0 0 0 0 0 0 0 0 0
0 0 0 0 0 0 0 -4 -10 0 0 0 0 0 0 0 0 0 0 0 0 0 0 0 0 0 0 0 0 0 0 0 0 0 0 0 0 0 0 0 0 0 0 0
-27 0 0 0 0 0 0 -53 -17 0 0 0 0 0 0 0 0 0 0 0 0 0 0 0 0 0 0 0 0 0 0 0 0 0 0 0 0 0 0 0 0 0 0 0
0 0 0 0 0 0 0 0 0 0 0 0 0 0 0 0 0 0 0 0 0 0 0 0 0 0 0 0 0 0 0 0 0 0 0 0 0 0 0 0 0 0 0 0
0 0 0 0 0 0 0 0 0 0 0 0 0 0 0 0 0 0 0 0 0 0 0 0 0 0 0 0 0 0 0 0 0 0 0 0 0 0 0 0 0 0 0 0
0 0 0 0 0 0 0 0 0 -20 -1 0 0 0 0 0 0 0 0 0 0 0 0 0 0 0 0 0 0 0 0 0 0 0 0 0 0 0 0 0 0 0 0 0
0 -39 -10 0 0 0 -30 0 0 0 -37 0 0 0 0 0 0 0 0 0 0 0 0 0 0 0 0 0 0 0 0 0 0 0 0 0 0 0 0 0 0 0 0 0
0 0 0 0 0 0 0 -22 0 -1 0 0 0 0 0 0 0 0 0 0 0 0 0 0 0 0 0 0 0 0 0 0 0 0 0 0 0 0 0 0 0 0 0 0
0 0 0 0 0 -15 0 0 -32 -5 0 0 0 0 0 0 0 0 0 0 0 0 0 0 0 0 0 0 0 0 0 0 0 0 0 0 0 0 0 0 0 0 0 0
0 0 0 0 0 -2 0 -7 -32 -17 0 0 0 0 0 0 0 0 0 0 0 0 0 0 0 0 0 0 0 0 0 0 0 0 0 0 0 0 0 0 0 0 0 0
0 0 0 0 0 0 0 -10 0 -11 -1 0 0 0 0 0 0 0 0 0 0 0 0 0 0 0 0 0 0 0 0 0 0 0 0 0 0 0 0 0 0 0 0 0
0 0 0 0 0 0 0 0 0 -7 0 0 0 0 0 0 0 0 0 0 0 0 0 0 0 0 0 0 0 0 0 0 0 0 0 0 0 0 0 0 0 0 0 0
0 0 0 0 0 0 0 0 0 0 -1 0 0 0 0 0 0 0 0 0 0 0 0 0 0 0 0 0 0 0 0 0 0 0 0 0 0 0 0 0 0 0 0 0
0 0 0 0 0 -11 -1 0 0 0 0 0 0 0 0 0 0 0 0 0 0 0 0 0 0 0 0 0 0 0 0 0 0 0 0 0 0 0 0 0 0 0 0 0
-81 0 0 0 -25 -6 0 0 0 0 0 0 0 0 0 0 0 0 0 0 0 0 0 0 0 0 0 0 0 0 0 0 0 0 0 0 0 0 0 0 0 0 0 0
-2 0 0 -19 0 0 0 0 0 0 0 0 0 0 0 0 0 0 0 0 0 0 0 0 0 0 0 0 0 0 0 0 0 0 0 0 0 0 0 0 0 0 0 0
0 0 -5 0 0 0 -5 0 0 0 0 0 0 0 0 0 0 0 0 0 0 0 0 0 0 0 0 0 0 0 0 0 0 0 0 0 0 0 0 0 0 0 0 0
-2 -6 0 0 0 0 0 0 0 0 0 0 0 0 0 0 0 0 0 0 0 0 0 0 0 0 0 0 0 0 0 0 0 0 0 0 0 0 0 0 0 0 0 0
0 0 0 0 0 0 0 0 0 0 0 0 0 0 0 0 0 0 0 0 0 0 0 0 0 0 0 0 0 0 0 0 0 0 0 0 0 0 0 0 0 0 0 0
0 0 0 0 0 0 0 0 0 0 0 0 0 0 0 0 0 0 0 0 0 0 0 0 0 0 0 0 0 0 0 0 0 0 0 0 0 0 0 0 0 0 0 0
0 0 0 0 0 0 0 0 0 0 0 0 0 0 0 0 0 0 0 0 0 0 0 0 0 0 0 0 0 0 0 0 0 0 0 0 0 0 0 0 0 0 0 0
0 0 0 0 0 0 0 0 0 0 0 0 0 0 0 0 0 0 0 0 0 0 0 0 0 0 0 0 0 0 0 0 0 0 0 0 0 0 0 0 0 0 0 0
0 0 0 0 0 0 0 0 0 0 0 0 0 0 0 0 0 0 0 0 0 0 0 0 0 0 0 0 0 0 0 0 0 0 0 0 0 0 0 0 0 0 0 0
0 0 0 0 0 0 0 0 0 0 0 0 0 0 0 0 0 0 0 0 0 0 0 0 0 0 0 0 0 0 0 0 0 0 0 0 0 0 0 0 0 0 0 0
0 0 0 0 0 0 0 0 0 0 0 0 0 0 0 0 0 0 0 0 0 0 0 0 0 0 0 0 0 0 0 0 0 0 0 0 0 0 0 0 0 0 0 0
Wind_Speed
10 12 10 5 3 9 11 15 26 24 26 38 39 49 40 36 38 29 26 27 28 27 20 21 22 21 19 17 13 14 15 15 18 18 17 15 16 17 16 21 23 22 25 27
11 11 9 4 5 13 10 13 27 25 27 46 49 45 42 41 36 28 27 28 28 24 24 24 21 19 17 15 14 13 12 15 18 20 20 19 18 17 17 18 21 24 26 26
10 9 7 2 7 17 14 13 25 28 33 37 46 47 49 44 41 40 34 32 26 25 25 23 21 19 17 15 13 12 13 15 18 20 20 18 20 18 16 19 24 25 23 26
12 10 6 3 6 12 18 15 26 31 43 49 47 43 39 50 40 38 34 31 29 26 27 25 22 20 16 15 14 15 15 17 17 18 20 21 21 21 21 23 23 25 28 27
14 11 8 5 5 10 19 14 26 33 36 44 48 46 47 43 41 40 36 34 29 26 28 29 23 19 19 18 16 16 17 18 18 21 23 22 24 23 22 21 24 25 24 24
15 13 10 8 8 9 12 28 25 30 38 38 45 52 49 45 35 32 32 31 28 25 23 19 14 15 14 14 16 17 17 17 20 24 24 26 28 24 22 21 20 23 25 21
16 15 13 9 11 14 22 28 25 32 40 39 47 50 46 47 36 36 30 27 26 18 6 3 4 5 7 10 14 15 15 17 20 24 25 30 22 23 19 21 23 23 19 13
16 15 15 13 12 14 30 30 26 30 39 38 41 47 46 37 33 31 30 28 19 14 14 17 19 20 19 18 17 17 15 17 21 24 26 28 24 24 19 20 24 24 15 14
16 15 14 14 13 14 26 33 30 25 29 40 37 41 39 39 35 30 28 24 20 19 23 24 29 29 25 24 22 18 16 17 22 24 29 33 24 18 18 20 25 20 13 11
18 16 15 14 13 15 23 33 33 27 31 28 31 35 41 33 31 28 27 26 25 22 27 28 27 28 22 23 22 22 22 24 25 27 30 29 20 17 18 24 23 17 12 11
20 19 17 15 15 15 22 34 35 27 29 30 29 28 31 30 33 33 24 25 28 28 28 29 26 26 25 24 21 23 22 22 24 24 29 34 13 15 18 17 17 15 17 16
21 20 19 18 17 16 23 36 36 26 30 27 23 23 23 27 28 24 25 27 26 24 25 24 22 25 23 23 28 22 26 22 24 22 26 19 13 18 15 14 15 17 18 17
23 22 21 20 19 20 28 34 33 25 29 26 26 25 23 22 25 25 24 25 22 24 22 20 21 25 21 23 24 22 24 19 23 22 21 16 14 15 15 16 18 17 16 14
23 23 22 21 19 23 28 35 32 24 22 27 23 20 22 23 21 21 16 16 17 17 18 19 20 21 20 22 22 21 21 20 22 22 19 15 18 18 15 17 17 17 16 14
23 23 22 22 25 27 30 31 39 27 22 24 24 21 17 16 16 15 13 14 16 18 18 19 21 19 20 22 21 22 20 22 23 24 15 19 19 16 13 15 15 15 16 17
23 24 26 28 30 27 25 34 39 40 26 21 22 20 20 17 13 13 13 14 14 15 17 18 18 18 18 21 24 18 20 17 14 18 16 15 15 15 15 15 14 16 15 14
26 27 29 32 30 30 33 33 31 34 28 19 18 22 22 19 18 19 17 13 15 16 17 19 18 19 19 24 29 23 17 16 14 12 14 18 17 17 14 14 15 14 16 15
30 31 35 32 24 28 36 27 24 27 25 21 19 21 25 20 21 22 20 19 17 18 18 18 21 20 22 29 25 19 15 14 15 16 17 15 14 13 13 12 12 14 15 14
33 33 27 25 30 35 38 23 22 25 28 26 22 19 23 22 23 21 20 19 23 22 23 22 22 22 23 23 19 15 17 19 13 15 15 15 12 11 11 12 13 13 13 13
24 27 30 34 35 27 24 26 30 28 27 24 22 19 19 20 22 22 21 21 22 26 26 19 23 22 18 17 13 12 13 12 12 15 16 14 13 11 11 12 12 12 11 12
31 32 31 28 30 27 25 29 33 30 30 26 24 16 12 16 22 21 20 22 23 26 23 18 20 20 18 15 14 15 15 16 17 16 14 15 13 10 10 12 12 12 12 12
30 29 26 30 29 24 26 33 30 29 31 25 22 15 15 17 16 19 21 21 21 25 16 19 21 17 12 12 14 15 15 16 16 15 14 15 13 11 10 11 11 11 11 11
25 27 25 29 27 30 31 36 34 28 24 21 17 16 18 16 17 19 20 23 25 16 21 20 18 10 10 11 13 14 15 15 16 16 15 15 13 12 11 10 12 11 11 10
26 26 28 30 35 33 31 31 28 22 16 18 14 15 18 14 15 16 19 19 15 22 24 19 12 9 9 11 13 15 16 16 15 14 14 13 12 12 12 11 10 9 10 9
22 23 27 26 26 23 21 17 15 14 14 13 12 14 15 14 16 19 18 19 20 19 21 16 8 7 9 12 13 14 14 13 13 13 12 12 12 12 12 10 10 10 9 9
17 15 18 17 17 16 14 13 14 14 11 8 10 13 15 15 13 17 19 16 19 17 12 5 6 9 10 11 13 13 12 12 12 12 12 12 12 11 10 10 10 9 9 9
16 15 11 12 12 13 12 11 9 10 9 10 8 11 14 11 15 15 15 14 10 4 5 6 8 10 11 11 11 11 11 12 12 13 12 11 11 11 10 10 11 10 10 9
Wind_Direction
295 305 321 329 160 164 181 233 236 238 229 227 232 231 235 241 242 253 257 254 248 247 239 248 250 254 264 273 274 280 293 307 302 310 330 337 336 336 338 331 333 335 333 330
284 297 310 336 149 158 172 212 240 241 235 227 229 234 238 240 239 248 254 256 249 250 240 249 251 256 268 272 274 278 290 301 301 312 318 327 329 330 331 335 334 327 327 331
271 286 299 318 150 167 244 223 234 236 234 236 231 233 236 237 240 246 252 257 257 245 242 252 249 252 264 271 275 287 295 300 302 302 317 330 328 336 340 332 326 326 323 328
262 271 280 264 167 183 239 234 238 234 229 231 231 231 239 235 239 241 251 254 251 245 243 243 248 251 256 269 274 285 292 294 302 313 318 323 326 326 326 322 323 321 324 325
255 258 260 235 202 217 235 231 243 237 240 234 232 231 234 239 240 243 246 247 249 248 242 244 239 244 255 263 271 280 292 296 305 308 320 325 323 326 328 327 325 322 326 328
248 250 252 239 195 213 221 243 251 246 240 237 232 231 233 237 245 246 247 245 246 247 250 248 238 259 257 261 263 275 287 297 302 303 317 322 321 330 333 334 338 335 332 339
246 244 245 231 199 205 245 240 251 246 240 237 235 232 233 234 246 247 245 244 243 240 191 188 269 286 284 284 284 286 288 298 304 306 316 313 329 333 339 335 336 337 342 357
242 236 240 232 212 211 243 245 250 253 242 241 239 234 235 238 243 246 240 243 235 229 234 242 252 261 266 276 286 292 295 300 304 306 311 316 326 330 333 331 330 339 347 352
233 230 232 231 221 224 244 243 243 260 251 240 242 237 233 230 232 242 243 240 237 246 245 248 252 254 261 266 274 293 299 304 303 307 308 311 324 334 340 339 324 343 358 1
230 229 232 230 230 230 245 242 234 255 255 255 243 239 229 234 228 241 237 231 238 249 246 248 255 259 261 264 267 275 286 294 296 303 306 314 324 328 334 325 330 350 354 358
226 228 230 229 232 234 242 241 231 245 255 255 249 245 230 233 227 233 234 235 242 243 247 250 256 262 261 270 272 280 284 292 299 305 306 309 337 337 327 336 344 349 350 352
223 227 228 230 233 232 240 236 228 254 261 258 253 243 238 238 232 232 231 241 238 246 250 260 264 266 270 272 274 283 286 294 299 304 309 324 326 327 336 338 341 341 343 347
224 227 229 231 234 237 236 235 226 248 245 242 237 234 239 244 242 243 236 243 248 251 259 260 269 270 274 274 283 287 293 295 302 307 316 321 325 330 333 336 336 340 345 352
222 227 226 225 225 234 232 232 220 239 242 236 237 244 241 249 246 240 243 245 254 255 261 266 270 274 281 281 292 292 298 296 303 310 318 324 319 320 330 336 343 347 351 354
218 222 219 219 227 231 233 236 222 232 243 239 228 239 249 247 242 243 242 246 246 253 260 270 273 281 286 290 293 295 301 304 303 303 310 313 314 323 332 336 340 348 352 352
215 217 221 223 224 224 230 228 228 226 244 242 232 241 240 242 249 249 242 245 253 261 269 276 284 292 296 293 294 311 316 317 319 314 318 326 329 331 332 336 341 344 349 356
215 218 219 220 221 225 226 222 222 219 222 244 235 233 237 241 239 240 246 258 259 269 276 282 289 294 304 294 290 309 314 314 321 328 327 321 324 326 338 345 348 359 0 3
215 215 216 218 221 227 221 235 230 218 226 237 235 237 230 241 234 237 252 252 268 281 285 293 292 297 297 292 296 301 298 313 321 325 329 332 338 345 349 357 4 358 358 5
209 209 207 217 223 214 211 226 218 225 231 234 238 222 228 232 233 242 250 262 261 276 283 292 301 293 290 290 292 291 294 304 318 331 338 338 340 345 352 356 355 359 1 6
195 202 214 213 207 203 209 214 213 223 232 236 234 234 230 228 234 244 249 263 269 277 285 296 287 284 293 297 307 315 318 326 330 328 328 335 335 338 344 348 355 360 4 5
201 205 208 201 185 198 212 210 214 224 228 235 235 233 210 245 236 244 261 264 275 275 280 287 286 286 289 298 307 315 323 328 328 332 339 340 340 344 349 351 356 2 3 3
193 186 181 185 198 208 216 215 220 230 230 234 221 214 235 241 252 258 264 270 274 275 291 288 284 296 301 308 318 325 332 337 339 341 342 343 348 354 353 354 357 1 7 12
176 179 191 200 207 212 220 218 221 226 226 220 206 216 238 251 263 263 268 268 270 283 280 287 295 296 311 322 332 338 343 344 343 343 345 347 350 355 1 2 359 4 10 18
188 195 194 202 206 216 221 218 213 223 198 185 197 231 251 257 267 275 273 275 281 274 275 288 295 300 322 330 337 341 340 343 347 347 348 349 353 353 353 356 4 12 13 19
200 206 203 213 215 221 217 208 192 168 174 184 211 246 260 266 270 273 274 270 276 280 283 292 298 322 333 338 342 345 348 351 351 354 355 354 354 353 356 5 9 8 12 13
215 221 198 194 190 195 189 174 163 184 192 224 259 260 266 269 273 271 274 272 281 289 302 326 346 340 342 345 346 348 350 351 352 351 351 352 354 358 2 4 360 1 1 9
213 200 189 180 186 190 182 163 195 224 227 244 259 275 266 272 276 280 285 290 307 353 5 4 357 350 344 345 348 350 353 352 355 357 360 1 6 6 3 359 350 351 352 359